Tracking 20712 objects as of 28-May-2020
HD Live streaming from Space Station
objects crossing your sky now

COSMOS 970 DEB

Track COSMOS 970 DEB now!
10-day predictions


NORAD ID: 14907
Int'l Code: 1977-121BL
Perigee: 1,018.3 km
Apogee: 1,111.6 km
Inclination: 66.0 °
Period: 106.4 minutes
Semi major axis: 7435 km
RCS: 0.0067 m2 (small)
Launch date: December 21, 1977
Source: Commonwealth of Independent States (former USSR) (CIS)
Launch site: TYURATAM MISSILE AND SPACE COMPLEX (TTMTR)

Note: This is SATELLITE DEBRIS
aabbcc
Your satellite tracking list
Your tracking list is empty




NASA's NSSDC Master Catalog

Two Line Element Set (TLE):
1 14907U 77121BL  20148.50860278 -.00000110 +00000-0 -50902-4 0  9994
2 14907 066.0256 183.2000 0062790 134.4195 297.2209 13.53935722901868
Source of the keplerian elements: AFSPC